STARLINK-35889, 67189

Orbit data source: Space-Track

STARLINK-35889, 67189 is a payload satellite owned by SpaceX/Seattle (US) in LEO that was launched on Wed, 17 Dec 2025 UTC via an FALCON 9 launch vehicle from the Air Force Eastern Test Range (AFETR). Payload-class satellites include a variety of spacecraft equipped with specific instruments for various scientific and technological missions. These include communications satellites like Starlink; space stations such as the ISS; scientific satellites like the Hubble; Earth observation satellites from companies like Planet Labs, Umbra, and HawkEye 360; GPS; miniature CubeSats for education and research; and military/defense satellites.

Loading next visibility...
Identifier
67189, 2025-303AC
Orbit
LEO
Country
Flag of USUS
Related business
Manufacturer
SpaceX/Seattle
Mission
Operational Commercial Communications
Bus & Motor
STARLINK V2MO, Unknown motor
Mass
575 kg wet, ~530 kg dry
Launch date (UTC)
2025-12-17 (6 months ago)
Launch vehicle
FALCON 9
Launch site
Air Force Eastern Test Range (AFETR)
Object type
Payload
Rocket body
Debris
Shape & HBR
Box + 2 Pan, 17.7 m
Radar Cross Section
36.964 m², Large (>1 m²)

Expand to show TLE details & history
Last TLE update: 16 hours ago

TLE from 16 hours ago
0 STARLINK-35889
1 67189U 25303AC  26171.16737827  .00012889  00000-0  47690-3 0  9999
2 67189  43.0030  92.3296 0000871 319.7019  40.3768 15.27592243 28402
Epoch: 2026-06-20T04:01Z
TLE epoch observation values (Epoch: 2026-06-20T04:01:01.482Z)
Latitude
-0.00002°
Longitude
123.68751°
Altitude
482.333 km
Speed
7.626 km/s
True Right ascension
06h 09m 19s
True Declination
0° 00' 00"
Sunlit
Object was in daylight at epoch
Visualization orbit readout
Latitude
Unknown
Longitude
Unknown
Altitude
Unknown
Speed
Unknown
Apparent Right ascension
Unknown
Apparent Declination
Unknown
Sunlit
N/A
Visualization observer readout
Local Sidereal Time
07:13:42
Azimuth
Unknown
Elevation
Unknown
Doppler factor
Unknown
Orbital elements
Apogee altitude
485.555 km
Perigee altitude
484.359 km
Semi-major axis
6,863.094 km
Eccentricity
0.00009
Inclination
43.003°
RAAN
92.3296°
Arg. of periapsis
319.7019°
True anomaly
40.38327°
Mean anomaly
40.3768°
Eccentric anomaly
40.38003°
Mean motion
3.81736 °/min
Orbital period
94.31 mins
BSTAR
0.0004769
Loading maneuver chart data...
Computing Atmospheric mass density...
Loading historical data...
Loading historical data...
Loading historical data...
Loading historical data...
Loading historical data...
Loading historical data...
Loading historical data...

Documentation

Showing up to 5 results
|